Location: La Grimaudi�re
(46.8075°N, 0.0179°E)
Time: 23:59:46
(UTC+00:00)

Daily predictions for brighter satellites

Satellite Brightness Start Highest point End
(mag) Time Altitude Azimuth Time Altitude Azimuth Time Altitude Azimuth
ISS -3.7 16:47:48 10° WSW 16:51:12 79° NNW 16:54:36 10° ENE
Cosmos 1992 Rocket 4.4 16:46:48 10° SSW 16:51:58 66° WNW 16:57:12 10° NNE
CZ-2C R/B 4.1 16:50:40 10° NE 16:53:50 16° E 16:56:57 10° SE
USA 81 4.2 16:48:37 10° S 16:53:52 85° W 16:59:12 10° N
USA 267 3.6 16:48:46 10° NE 16:55:11 61° NNW 17:01:36 10° WSW
Cosmos 1340 Rocket 4.4 16:53:01 10° NNE 16:55:32 16° ENE 16:58:04 10° ESE
Spot 1 4.2 16:51:27 10° NNE 16:55:57 81° ESE 17:00:42 10° SSW
Cosmos 1503 Rocket 4.4 16:52:50 10° NNW 16:58:13 73° WSW 17:03:34 10° SSE
AQUARIUS 4.5 16:54:24 10° SE 16:58:38 44° ENE 17:02:55 10° N
RESURS DK-1 3.9 16:55:19 10° WSW 16:59:01 31° NW 17:02:46 10° NNE
USA 306 3.3 16:55:50 10° SW 16:59:58 52° SE 17:04:01 10° ENE
Lacrosse 5 rocket 2.6 16:56:52 10° W 17:00:07 27° NNW 17:03:30 10° NE
Cosmos 1271 Rocket 3.0 16:56:38 10° S 17:00:21 46° E 17:04:10 10° NNE
SMAP 3.1 17:01:04 10° SSE 17:05:39 61° ENE 17:10:16 10° N
ATLAS 2AS CENTAUR R/B 3.7 16:59:27 10° WSW 17:07:02 50° NW 17:14:24 10° NE
Cosmos 1408 Rocket 4.1 17:04:12 10° N 17:08:09 34° ENE 17:12:07 10° SE
CZ-4B DEB 4.3 17:03:38 10° SE 17:09:00 55° ENE 17:14:23 10° N
Cosmos 1980 Rocket 4.0 17:08:28 10° N 17:10:50 12° NNE 17:12:43 11° NE
Cosmos 1697 Rocket 4.0 17:06:59 10° N 17:10:56 19° NE 17:14:22 12° E
NOAA 12 4.3 17:07:37 10° S 17:12:56 79° WSW 17:18:19 10° NNW
H-2A R/B 2.5 17:08:35 10° SE 17:13:28 40° ENE 17:18:14 10° N
USA 307 3.1 17:10:49 10° SW 17:15:02 61° SE 17:18:33 15° ENE
Cosmos 1513 Rocket 4.5 17:09:26 10° S 17:15:23 61° E 17:21:27 10° NNE
PAYLOAD B 4.4 17:10:52 10° SE 17:16:15 50° ENE 17:21:40 10° N
Cosmos 44 4.1 17:12:56 10° NNW 17:17:13 29° NE 17:20:56 12° E
Cosmos 1777 Rocket 4.0 17:13:59 10° NNW 17:19:18 82° ENE 17:24:35 10° SSE
ATLAS CENTAUR R/B 1.4 17:15:44 10° SSW 17:19:47 84° SE 17:23:56 12° NE
Cosmos 2034 Rocket 4.3 17:15:09 10° SSE 17:20:54 43° E 17:26:40 10° NNE
Lacrosse 5 2.0 17:17:21 10° NW 17:22:29 84° SW 17:27:35 10° SE
Cosmos 1939 Rocket 3.0 17:18:57 10° SSE 17:23:05 84° WSW 17:27:14 10° NNW
NOSS 3-1 (A) 4.5 17:17:01 10° NNW 17:23:40 40° NE 17:31:27 10° ESE
NOSS 3-1 (C) 4.1 17:21:47 10° NW 17:28:54 56° NE 17:37:18 10° ESE
Okean 3 Rocket 3.8 17:24:43 10° NNW 17:29:16 79° W 17:33:45 10° S
NOSS 2-1 (C) 2.7 17:26:31 10° SW 17:29:49 89° WNW 17:32:11 18° NE
Cosmos 1656 4.0 17:25:32 10° NNW 17:30:43 40° NE 17:35:56 10° SE
MOS 1-B Rocket 4.3 17:26:02 10° NNE 17:31:27 43° E 17:37:18 10° S
Cosmos 1862 3.8 17:30:32 10° NNW 17:34:28 62° W 17:38:23 10° S
CZ-2D R/B 3.2 17:30:52 10° SSE 17:34:39 61° ENE 17:38:28 10° N
GEOS 3 Rocket 3.6 17:30:04 10° SE 17:35:14 63° NE 17:40:23 10° NW
Cosmos 1461 3.4 17:32:05 10° SW 17:36:17 56° NW 17:39:49 13° NNE
PSLV R/B 3.5 17:32:54 10° SSE 17:36:34 78° ENE 17:40:16 10° N
MOS 1-B 4.3 17:31:05 10° SSE 17:36:47 68° ENE 17:42:33 10° N
USA 308 2.8 17:32:50 10° SW 17:37:06 84° SSE 17:39:45 22° ENE
NOSS 2-1 (D) 2.9 17:35:48 10° SW 17:39:05 71° NW 17:41:11 20° NNE
Cosmos 1500 Rocket 3.9 17:37:27 10° N 17:41:45 44° ENE 17:45:59 10° SSE
SJ 16-02 1.5 17:39:44 10° NNW 17:44:07 78° WSW 17:48:29 10° SSE
Cosmos 1805 Rocket 4.1 17:48:04 10° N 17:52:02 33° ENE 17:55:57 10° SE
Cosmos 1842 Rocket 3.5 17:47:39 10° S 17:52:04 83° E 17:56:34 10° N
CZ-4C R/B 3.8 17:47:55 10° NNW 17:53:24 26° NNE 17:56:09 21° NE
CZ-4B R/B 3.1 17:48:34 10° SSE 17:54:01 70° ENE 17:59:24 10° N
ATLAS 5 CENTAUR R/B 3.5 17:48:34 10° NW 17:57:16 29° N 17:58:53 24° NE
Cosmos 1833 Rocket 3.5 17:53:23 10° SSE 17:58:03 28° ESE 17:58:47 27° E
CZ-4 R/B 3.4 18:00:42 15° NNE 18:00:42 15° NNE 18:01:42 10° N
Cosmos 1606 3.7 18:02:48 10° SSW 18:06:24 45° WNW 18:10:03 10° N
Meteor 1-25 Rocket 4.1 18:02:13 10° N 18:07:45 65° ENE 18:13:16 10° SSE
USA 305 3.2 18:03:55 10° WSW 18:08:05 59° NNW 18:09:32 37° NE
Cosmos 2026 Rocket 4.0 18:02:27 10° N 18:08:34 56° ENE 18:14:32 10° SSE
Cosmos 2195 Rocket 4.4 18:03:46 10° N 18:09:53 66° E 18:16:00 10° SSE
USA 276 2.6 18:07:36 10° WNW 18:10:26 45° N 18:10:26 45° N
Sich 1 4.2 18:07:04 10° N 18:09:17 26° NNE 18:09:17 26° NNE
Okean O Rocket 1.5 18:08:23 10° SSE 18:12:49 80° ENE 18:17:18 10° NNW
ARGOS 3.0 18:08:33 10° SSE 18:13:58 79° ENE 18:19:24 10° NNW
COSMO-SKYMED 1 2.4 18:11:30 19° NNE 18:14:39 81° ESE 18:18:59 10° S
ATLAS CENTAUR R/B 2.9 18:08:03 10° SSW 18:17:48 56° SE 18:19:17 42° E
ERBS 2.3 18:16:53 10° SW 18:19:49 72° WSW 18:19:49 72° WSW
Cosmos 1937 Rocket 3.8 18:15:54 10° N 18:20:59 43° ENE 18:21:06 43° ENE
Cosmos 2221 3.9 18:22:28 10° SW 18:26:25 37° WNW 18:30:26 10° N
Cosmos 1763 Rocket 3.3 18:22:49 10° S 18:27:48 64° ESE 18:28:45 52° ENE
ISS -2.4 18:25:10 10° WNW 18:27:49 33° NNW 18:27:49 33° NNW
Cosmos 1340 Rocket 3.7 18:28:21 10° NNW 18:32:17 50° W 18:36:13 10° S
Cosmos 1933 3.2 18:29:13 10° S 18:33:17 90° S 18:33:24 85° N
deb Chang Zheng 4 4.4 18:29:22 10° S 18:33:32 50° W 18:37:44 10° NNW
YAOGAN 1 3.7 18:35:36 31° N 18:35:36 31° N 18:37:58 10° N
CZ-2C R/B 2.7 18:29:28 10° N 18:34:45 74° WNW 18:39:54 10° SSW
USA 267 4.1 18:35:05 28° NE 18:37:33 38° N 18:43:27 10° WNW
Meteor 2-21 4.3 18:31:25 10° N 18:37:34 81° E 18:43:37 10° SSE
Cosmos 2369 4.1 18:33:12 10° NNW 18:38:07 45° NE 18:38:07 45° NE
Feng Yun 1-1 Rocket 4.3 18:33:08 10° SSE 18:39:03 86° ENE 18:45:01 10° NNW
Landsat 5 3.6 18:38:53 50° N 18:39:55 74° WNW 18:44:02 10° SSW
USA 306 3.6 18:35:50 10° W 18:39:55 44° NNW 18:40:01 44° NNW
Lacrosse 5 rocket 3.3 18:37:27 10° NW 18:39:29 18° NNW 18:39:29 18° NNW
Cosmos 990 Rocket 4.1 18:36:15 10° NNW 18:41:28 75° WSW 18:46:37 10° SSE
Cosmos 2322 Rocket 4.4 18:40:52 10° N 18:41:19 11° N 18:41:19 11° N
USA 229 DEB 3.8 18:44:36 10° NW 18:51:57 83° NE 18:54:57 42° SE
USA 229 3.8 18:44:41 10° NW 18:52:03 82° NE 18:54:58 42° SE
Cosmos 1092 Rocket 4.5 18:46:29 10° NNW 18:52:43 61° W 18:58:55 10° S
H-2A R/B 3.9 18:48:20 10° SSW 18:52:58 31° W 18:57:31 10° NNW
USA 307 4.0 18:51:02 10° W 18:54:34 39° NW 18:54:34 39° NW
Cosmos 1697 Rocket 2.5 18:50:05 10° NNW 18:55:45 86° ENE 18:56:10 77° SE
SL-16 R/B 4.3 18:52:04 10° N 18:53:08 13° N 18:53:08 13° N
Cosmos 1980 Rocket 3.0 18:50:48 10° NNW 18:54:31 36° N 18:54:31 36° N
COSMOS 2455 4.2 18:51:57 10° S 18:54:37 25° SSE 18:54:37 25° SSE
COSMOS 2406 3.5 18:52:43 10° SSW 18:57:18 53° SSE 18:57:18 53° SSE
Cosmos 44 3.9 18:54:03 10° NW 18:58:42 50° WSW 18:59:25 45° SSW
ATLAS CENTAUR R/B 3.6 18:56:10 10° W 18:59:17 19° NNW 19:00:04 19° NNW
Meteor 1-26 Rocket 4.3 18:53:55 10° SSW 18:59:48 84° WNW 19:02:35 34° N
ATLAS 2AS CENTAUR R/B 4.4 18:53:50 10° WNW 18:59:52 24° NNW 19:02:55 19° NNE
Cosmos 2082 Rocket 4.0 18:56:48 10° S 18:58:13 18° S 18:58:13 18° S
Cosmos 2142 Rocket 4.3 18:57:38 10° S 19:03:45 82° E 19:04:23 72° NNE
Lacrosse 5 4.5 19:01:30 10° W 19:04:48 17° WSW 19:08:05 10° SSW
Cosmos 1898 Rocket 4.0 19:05:20 10° NNW 19:10:31 57° WSW 19:11:40 47° SSW
NOSS 3-1 (A) 4.2 19:07:44 10° NW 19:15:15 74° SW 19:19:12 36° SSE
Cosmos 2279 Rocket 4.1 19:22:04 10° SSW 19:28:11 71° W 19:28:11 71° W
CZ-4 R/B 4.4 19:36:41 10° NW 19:36:41 10° NW 19:36:46 10° NNW
Cosmos 1833 Rocket 3.7 19:36:15 10° SW 19:40:32 43° W 19:40:32 43° W
CZ-4C R/B 3.4 19:36:11 10° NW 19:41:21 50° N 19:41:21 50° N
